Theta_e
312 312 312 312 313 313 313 314 314 315 316 317 320 320 320 319 317 318 317 314 312 312 311 310 310 310 309 308 307 307 307 307
312 312 312 312 312 311 311 311 313 314 314 315 316 318 318 317 316 316 314 313 312 311 311 310 309 309 309 308 307 307 308 308
311 310 311 310 310 310 310 311 312 313 312 313 315 317 316 315 314 314 314 312 311 310 309 308 309 309 308 307 306 306 305 305
309 308 308 308 308 308 309 308 309 310 310 311 313 314 313 313 313 313 312 312 312 311 310 309 308 308 304 303 305 305 306 306
307 307 307 307 307 307 305 305 307 307 307 310 310 311 310 311 311 311 310 310 310 308 309 308 307 306 302 301 303 305 305 305
306 306 305 305 305 304 303 303 304 304 305 307 308 307 308 309 309 308 308 307 306 307 307 307 305 306 302 300 301 304 305 305
305 305 304 303 301 301 300 300 301 301 301 301 302 303 305 306 305 304 307 306 307 307 307 307 307 307 303 300 301 306 306 306
304 303 302 301 300 300 298 297 298 296 297 298 299 301 302 303 304 305 305 306 306 307 307 308 308 309 304 300 301 306 305 306
303 302 300 299 299 298 296 296 294 295 295 296 297 298 301 302 305 304 306 306 306 305 307 309 309 308 307 300 299 303 304 304
302 301 300 300 299 296 294 293 294 294 293 294 295 298 300 302 303 303 304 305 305 304 304 305 308 307 302 300 297 297 298 299
301 300 300 300 299 297 293 293 294 293 291 292 294 295 298 299 301 303 302 304 302 301 301 302 301 301 300 297 295 295 297 298
299 298 297 296 297 296 295 294 294 294 291 290 291 292 295 298 301 301 300 301 301 300 301 300 297 296 295 295 295 297 301 304
298 296 295 294 295 295 294 294 294 293 292 290 289 290 294 296 297 297 295 298 296 297 300 297 293 291 292 291 292 294 299 301
295 294 294 293 294 293 293 294 294 294 292 291 289 289 291 292 293 293 292 292 293 293 293 292 292 291 291 291 292 293 295 296
293 292 292 293 293 292 293 293 294 295 293 292 291 289 289 288 289 291 289 291 293 292 292 291 290 289 290 291 292 292 296 303
293 292 291 292 291 291 292 293 295 295 296 292 294 293 289 288 288 289 290 288 287 289 292 291 289 289 290 290 291 295 300 302
292 291 291 290 290 291 292 292 293 294 294 293 295 296 295 292 292 290 290 290 288 288 289 289 289 290 290 290 290 292 292 296
290 289 289 288 289 292 291 291 292 294 295 290 292 294 294 294 295 294 292 291 290 288 287 287 288 289 287 287 288 288 290 292
291 290 290 289 289 292 291 291 291 293 293 294 290 293 293 292 293 293 292 293 292 289 287 287 286 289 286 286 286 286 287 289
292 291 290 290 291 292 291 290 290 293 292 291 292 290 291 291 291 292 291 291 291 291 290 288 286 289 288 286 286 286 287 288
Wind_Speed
12 9 8 9 6 6 6 6 6 6 6 5 4 4 4 5 6 6 6 7 8 9 11 11 12 11 12 11 12 13 13 13
8 8 9 9 6 7 7 7 7 7 7 6 5 4 4 5 6 6 6 6 8 10 11 12 13 13 13 13 12 14 13 12
8 8 8 7 7 6 8 7 8 8 8 7 6 5 5 6 6 7 6 7 9 11 12 12 12 12 10 10 13 14 15 15
12 11 9 8 7 8 8 9 10 9 9 9 7 7 7 6 6 7 8 10 10 11 12 12 12 9 13 13 16 14 16 16
12 10 9 7 8 8 9 9 9 10 11 11 9 9 9 7 8 9 11 12 12 12 12 12 14 14 17 17 21 15 15 15
11 9 7 8 8 9 9 10 10 10 9 11 11 12 11 11 11 10 11 11 11 11 12 13 13 13 17 18 16 13 14 16
10 8 6 6 8 9 9 9 10 10 11 12 13 14 13 12 11 11 11 11 11 10 12 13 13 15 17 17 17 16 16 18
8 8 7 8 8 9 9 9 10 11 12 13 13 12 11 11 11 11 10 9 11 10 12 13 16 15 17 18 19 14 17 14
6 6 7 7 8 9 9 10 10 11 12 12 12 12 12 11 10 10 8 9 10 11 13 12 13 12 18 22 23 15 13 12
5 6 4 5 7 8 9 10 11 11 11 12 12 10 10 9 10 10 9 9 9 10 12 12 10 14 21 21 26 27 24 14
6 6 6 8 8 8 9 10 10 10 11 11 11 12 11 11 10 8 8 7 6 9 10 10 11 14 13 24 28 29 22 10
7 7 8 8 8 9 9 9 11 10 10 10 11 11 11 9 8 8 9 8 9 9 9 10 11 13 13 15 16 16 17 11
7 8 7 7 7 8 9 9 10 9 9 8 10 9 10 9 9 8 10 11 10 8 7 9 10 13 16 23 19 14 13 13
7 8 7 8 8 9 9 9 7 8 7 7 6 7 7 9 8 9 12 16 16 14 4 6 10 19 29 33 34 31 25 17
8 8 7 9 9 10 10 10 8 4 5 5 4 6 7 9 9 10 11 12 15 19 12 15 25 25 28 28 29 25 20 21
8 8 9 9 9 10 11 10 9 7 5 1 6 3 4 5 7 8 8 9 12 13 14 15 22 24 23 26 29 18 17 16
9 9 11 10 10 11 12 11 12 8 7 7 8 4 2 2 4 5 6 6 8 10 12 13 18 20 20 22 24 13 14 15
9 9 10 11 10 11 12 11 13 8 7 3 9 7 7 8 6 5 3 5 6 7 11 14 15 16 16 17 16 15 13 14
9 10 9 10 10 12 12 11 13 7 7 8 11 9 9 9 9 9 10 9 6 6 6 11 17 11 12 12 13 14 14 13
8 10 11 10 9 9 11 12 12 8 8 9 9 10 9 10 10 9 10 10 10 10 8 8 13 11 11 11 12 12 14 14
Wind_Direction
132 137 129 95 74 51 37 19 9 1 343 345 354 353 337 339 331 326 332 344 330 318 301 297 297 293 290 281 277 277 274 271
133 115 85 69 42 29 4 6 353 347 337 334 333 331 335 322 318 318 339 314 315 304 295 301 301 291 293 286 288 281 274 274
142 95 69 50 34 7 10 346 347 351 331 326 319 322 325 324 330 317 293 316 300 295 293 293 289 299 294 306 301 289 289 281
82 75 61 44 17 6 351 353 349 335 327 315 319 323 328 324 312 301 324 319 309 303 305 302 306 300 303 291 288 288 285 277
78 64 52 35 17 4 2 341 337 340 329 320 330 334 325 328 336 338 342 321 321 313 308 317 310 308 291 287 281 280 277 271
64 57 37 29 16 7 347 348 341 338 328 321 339 328 334 334 335 341 317 310 311 307 313 308 299 289 273 267 265 278 274 274
68 58 41 25 22 7 354 352 349 340 351 344 336 327 325 330 327 319 314 310 308 309 298 301 295 298 290 290 290 290 280 274
60 51 44 37 19 5 2 0 355 355 340 332 326 318 319 319 310 307 306 310 305 310 309 308 298 309 309 304 298 298 282 270
80 71 51 41 23 11 9 3 359 342 334 331 328 327 313 305 308 313 304 316 322 321 313 305 309 315 319 313 313 308 300 294
85 76 69 72 48 24 5 3 348 347 342 337 331 321 317 312 323 301 326 322 331 325 326 327 322 330 317 321 318 308 300 290
44 40 46 54 38 43 10 355 350 350 353 346 338 331 330 321 317 323 325 332 322 324 333 333 337 326 330 329 324 320 317 301
36 27 32 35 22 31 23 3 351 354 4 352 341 335 324 332 326 354 345 341 348 340 339 342 339 332 333 333 328 321 311 308
39 36 26 21 17 31 18 11 356 353 6 355 352 336 327 345 0 348 358 335 341 335 357 359 351 338 326 320 321 316 312 303
42 38 26 16 16 28 11 5 1 355 -0 1 3 343 349 351 355 349 351 334 335 356 64 20 1 338 336 346 345 339 333 350
46 38 27 24 25 20 8 4 339 341 17 340 24 3 6 8 355 353 353 354 353 350 347 10 6 345 347 344 345 334 333 359
47 40 30 25 23 20 16 358 328 344 1 263 4 17 5 15 8 355 355 2 352 352 347 5 357 348 352 354 355 354 8 7
50 37 31 28 18 14 22 358 337 4 12 15 337 3 104 157 56 10 358 -0 356 351 348 358 358 359 3 4 6 16 2 358
52 46 35 21 16 360 26 360 336 11 7 349 342 14 5 11 352 32 45 22 21 9 5 360 350 2 10 9 3 359 4 0
65 48 38 31 9 353 26 5 342 18 6 14 6 23 8 19 357 12 8 358 43 36 29 7 348 13 10 9 5 358 359 359
56 55 36 24 2 3 20 10 344 28 14 23 19 29 6 17 360 13 18 1 10 22 22 32 3 13 14 15 10 3 355 353